Weather in Klyuchi

Russia / Saratov Oblast     51°26′11″N   45°11′21″E
temp.,
°C
wind,
m/s
gust,
m/s
humid.,
%
clouds,
%
prec.,
mm/h
press.,
hPa
HPBL,
m
9 may, sun
sun901:00+14se5116098 0.0 1011251
04:00+13se4117078 0.5 1010251
07:00+14sse51476100 0.9 1009351
10:00+15s6136892 1.0 1009590
13:00+20s8124299 0.0 10091496
16:00+20ssw71144100 0.0 10092089
19:00+11nw5684100 0.0 1012292
22:00+8nw6885100 0.0 1013316
10 may, mon
mon1001:00+8nnw6989100 0.4 1013270
04:00+8n61192100 1.1 1013295
07:00+9n61193100 1.3 1013275
10:00+14ne61080100 1.3 1012367
13:00+18ene5858100 0.0 10121011
16:00+21ene71350100 0.0 10121805
19:00+20ene91749100 0.0 1012748
22:00+15nne41078100 0.2 1015226
11 may, tue
tue1101:00+14ne41578100 0.1 1014671
04:00+11se51090100 0.2 1017439
07:00+8sse479099 1.6 1021507
10:00+12se46610 1.7 1023789
13:00+16ese44455 0.0 10231190
16:00+15ese3447100 0.0 10241135
19:00+10ne2478100 1.3 1025265
22:00+10e3895100 2.6 1024369
12 may, wed
wed1201:00+10ne1297100 1.3 1024131
04:00+11n2399100 16.1 1022157
07:00+13e41192100 0.2 1021479
10:00+14e6117825 0.3 1022472
13:00+19ese810609 0.0 10221030
16:00+16e7127095 0.0 1022547
19:00+15ese8147989 0.0 1022595
22:00+14e5137432 0.0 1022380
13 may, thu
thu1301:00+14e7157599 0.0 1021393
04:00+14ene61474100 0.1 1020424
07:00+13e6127899 0.9 1020490
10:00+15ese6117423 0.9 1020543
13:00+21se786272 0.0 10201354
16:00+21se686192 0.3 1019849
19:00+19ese6117471 0.6 1020323
22:00+16ese33780 0.6 102033